Weather History for Yankton, SD

Change the Weather History Date:

Monday, December 10, 2012

  Actual Average Record
Temperature  
Mean Temperature 15 °F -  
Max Temperature 30 °F 34 °F 65 °F (1957)
Min Temperature 0 °F 14 °F -15 °F (1958)
Degree Days  
Heating Degree Days 50    
Moisture  
Dew Point 8 °F    
Average Humidity 76    
Maximum Humidity 100    
Minimum Humidity 51    
Precipitation  
Precipitation 0.00 in - - ()
Sea Level Pressure  
Sea Level Pressure 29.95 in    
Wind  
Wind Speed 10 mph (WSW)    
Max Wind Speed 17 mph    
Max Gust Speed 22 mph    
Visibility 10 miles    
Events      
Averages and records for this station are not official NWS values.
T = Trace of Precipitation, MM = Missing Value Source: NWS Daily Summary

Daily Weather History Graph

Daily Weather History Graph

Search for Another Location

Airport:

Trip Planner

Search our weather history database for the weather conditions in past years. The results will help you decide how hot, cold, wet, or windy it might be!

Date:

Astronomy

Dec. 10, 2012 Rise Set
Actual Time 7:50 AM CST 4:55 PM CST
Civil Twilight 7:17 AM CST 5:27 PM CST
Nautical Twilight 6:42 AM CST 6:02 PM CST
Astronomical Twilight 6:07 AM CST 6:37 PM CST
Moon 4:32 AM CST (12/10) 2:47 PM CST (12/10)
Length of Visible Light 10h 09m
Length of Day
9h 05m
Waning Crescent, 10% of the Moon is Illuminated
Dec 10
Waning Crescent
Dec 13
New
Dec 19
First Quarter
Dec 28
Full
Jan 4
Last Quarter

Hourly Weather History & Observations

Time (CST) Temp. Windchill Dew Point Humidity Pressure Visibility Wind Dir Wind Speed Gust Speed Precip Events Conditions
12:15 AM 5.0 °F -14.2 °F -0.4 °F 78% 30.16 in 10.0 mi WNW 17.3 mph 21.9 mph N/A   Clear
12:35 AM 5.0 °F -14.2 °F -0.4 °F 78% 30.15 in 10.0 mi WNW 17.3 mph 20.7 mph N/A   Clear
12:55 AM 3.2 °F -14.6 °F -0.4 °F 85% 30.14 in 10.0 mi WNW 13.8 mph 18.4 mph N/A   Clear
1:15 AM 3.2 °F -15.3 °F -0.4 °F 85% 30.13 in 10.0 mi WNW 15.0 mph - N/A   Clear
1:35 AM 3.2 °F -15.9 °F -0.4 °F 85% 30.12 in 10.0 mi WNW 16.1 mph - N/A   Clear
1:55 AM 3.2 °F -15.3 °F -0.4 °F 85% 30.12 in 10.0 mi WNW 15.0 mph - N/A   Clear
2:15 AM 3.2 °F -14.6 °F -0.4 °F 85% 30.12 in 10.0 mi WNW 13.8 mph - N/A   Clear
2:55 AM 3.2 °F -13.9 °F -0.4 °F 85% 30.12 in 10.0 mi WNW 12.7 mph - N/A   Clear
3:15 AM 3.2 °F -13.1 °F 1.4 °F 92% 30.11 in 10.0 mi West 11.5 mph - N/A   Clear
3:35 AM 3.2 °F -13.1 °F -0.4 °F 85% 30.10 in 10.0 mi West 11.5 mph - N/A   Clear
3:55 AM 3.2 °F -13.1 °F -0.4 °F 85% 30.09 in 10.0 mi WNW 11.5 mph - N/A   Clear
4:15 AM 1.4 °F -15.3 °F 1.4 °F 100% 30.08 in 10.0 mi West 11.5 mph - N/A   Clear
4:35 AM 1.4 °F -13.5 °F -0.4 °F 92% 30.07 in 10.0 mi West 9.2 mph - N/A   Clear
4:55 AM 1.4 °F -12.5 °F -0.4 °F 92% 30.06 in 10.0 mi WNW 8.1 mph - N/A   Clear
5:15 AM 1.4 °F -11.3 °F -0.4 °F 92% 30.06 in 10.0 mi West 6.9 mph - N/A   Clear
5:35 AM 1.4 °F -8.3 °F -2.2 °F 85% 30.06 in 10.0 mi West 4.6 mph - N/A   Clear
5:55 AM 1.4 °F - -0.4 °F 92% 30.06 in 10.0 mi Calm Calm - N/A   Clear
6:15 AM 1.4 °F -6.2 °F -0.4 °F 92% 30.05 in 10.0 mi SSW 3.5 mph - N/A   Clear
6:35 AM 1.4 °F -6.2 °F -0.4 °F 92% 30.04 in 10.0 mi SW 3.5 mph - N/A   Clear
6:55 AM 1.4 °F -11.3 °F -0.4 °F 92% 30.05 in 10.0 mi WSW 6.9 mph - N/A   Clear
7:15 AM 1.4 °F -9.9 °F -0.4 °F 92% 30.04 in 10.0 mi West 5.8 mph - N/A   Clear
7:35 AM 1.4 °F -8.3 °F -2.2 °F 85% 30.04 in 10.0 mi West 4.6 mph - N/A   Clear
7:55 AM 1.4 °F - -4.0 °F 78% 30.03 in 10.0 mi Calm Calm - N/A   Clear
8:15 AM -0.4 °F - -2.2 °F 92% 30.03 in 10.0 mi Calm Calm - N/A   Clear
8:35 AM 1.4 °F - -0.4 °F 92% 30.03 in 10.0 mi Calm Calm - N/A   Clear
8:55 AM 3.2 °F - 1.4 °F 92% 30.03 in 10.0 mi Calm Calm - N/A   Clear
9:15 AM 5.0 °F - 3.2 °F 92% 30.03 in 10.0 mi Calm Calm - N/A   Clear
9:35 AM 6.8 °F -2.0 °F 1.4 °F 79% 30.02 in 10.0 mi South 4.6 mph - N/A   Clear
9:55 AM 8.6 °F 0.1 °F 6.8 °F 92% 30.01 in 10.0 mi South 4.6 mph - N/A   Clear
10:15 AM 8.6 °F 2.0 °F 6.8 °F 92% 30.00 in 10.0 mi South 3.5 mph - N/A   Clear
10:35 AM 10.4 °F - 6.8 °F 85% 30.00 in 10.0 mi Calm Calm - N/A   Clear
10:55 AM 12.2 °F 0.7 °F 8.6 °F 85% 30.00 in 10.0 mi SSE 8.1 mph - N/A   Clear
11:15 AM 12.2 °F 0.7 °F 6.8 °F 79% 29.98 in 10.0 mi SE 8.1 mph - N/A   Clear
11:35 AM 15.8 °F 5.1 °F 8.6 °F 73% 29.96 in 10.0 mi ESE 8.1 mph - N/A   Clear
11:55 AM 15.8 °F 4.2 °F 8.6 °F 73% 29.95 in 10.0 mi SSE 9.2 mph - N/A   Clear
12:15 PM 17.6 °F 5.7 °F 8.6 °F 68% 29.93 in 10.0 mi ESE 10.4 mph - N/A   Clear
12:35 PM 19.4 °F 7.9 °F 10.4 °F 68% 29.91 in 10.0 mi SE 10.4 mph - N/A   Clear
12:55 PM 19.4 °F 8.6 °F 10.4 °F 68% 29.89 in 10.0 mi SE 9.2 mph - N/A   Clear
1:15 PM 21.2 °F 10.1 °F 10.4 °F 63% 29.88 in 10.0 mi SE 10.4 mph - N/A   Clear
1:35 PM 21.2 °F 10.1 °F 12.2 °F 68% 29.87 in 10.0 mi SSE 10.4 mph - N/A   Clear
1:55 PM 23.0 °F 12.4 °F 12.2 °F 63% 29.85 in 10.0 mi SSE 10.4 mph - N/A   Clear
2:15 PM 24.8 °F 15.3 °F 14.0 °F 64% 29.84 in 10.0 mi South 9.2 mph - N/A   Clear
2:35 PM 26.6 °F 16.2 °F 12.2 °F 55% 29.84 in 10.0 mi SSE 11.5 mph - N/A   Clear
2:55 PM 26.6 °F 14.7 °F 12.2 °F 55% 29.84 in 10.0 mi South 15.0 mph - N/A   Clear
3:15 PM 26.6 °F 15.2 °F 14.0 °F 59% 29.83 in 10.0 mi South 13.8 mph - N/A   Clear
3:35 PM 26.6 °F 18.2 °F 14.0 °F 59% 29.83 in 10.0 mi South 8.1 mph - N/A   Clear
3:55 PM 28.4 °F 19.1 °F 12.2 °F 51% 29.83 in 10.0 mi SSW 10.4 mph - N/A   Clear
4:15 PM 28.4 °F 18.5 °F 12.2 °F 51% 29.83 in 10.0 mi SSW 11.5 mph - N/A   Clear
4:35 PM 26.6 °F 17.5 °F 12.2 °F 55% 29.83 in 10.0 mi SSW 9.2 mph - N/A   Scattered Clouds
4:55 PM 26.6 °F 19.1 °F 14.0 °F 59% 29.83 in 10.0 mi SW 6.9 mph - N/A   Mostly Cloudy
5:15 PM 26.6 °F 21.2 °F 14.0 °F 59% 29.84 in 10.0 mi SW 4.6 mph - N/A   Overcast
5:35 PM 26.6 °F 21.2 °F 12.2 °F 55% 29.83 in 10.0 mi WNW 4.6 mph - N/A   Mostly Cloudy
5:55 PM 26.6 °F - 12.2 °F 55% 29.83 in 10.0 mi Calm Calm - N/A   Clear
6:15 PM 24.8 °F 20.5 °F 14.0 °F 64% 29.83 in 10.0 mi WSW 3.5 mph - N/A   Scattered Clouds
6:35 PM 24.8 °F 19.1 °F 12.2 °F 59% 29.83 in 10.0 mi SSW 4.6 mph - N/A   Partly Cloudy
7:15 PM 24.8 °F - 12.2 °F 59% 29.83 in 10.0 mi Calm Calm - N/A   Mostly Cloudy
7:35 PM 23.0 °F - 15.8 °F 74% 29.83 in 10.0 mi Calm Calm - N/A   Mostly Cloudy
7:55 PM 24.8 °F - 15.8 °F 69% 29.83 in 10.0 mi Calm Calm - N/A   Mostly Cloudy
8:15 PM 24.8 °F 19.1 °F 17.6 °F 74% 29.83 in 10.0 mi SW 4.6 mph - N/A   Overcast
8:35 PM 24.8 °F 17.9 °F 15.8 °F 69% 29.83 in 10.0 mi SW 5.8 mph - N/A   Overcast
8:55 PM 26.6 °F 20.0 °F 15.8 °F 64% 29.82 in 10.0 mi SW 5.8 mph - N/A   Overcast
9:15 PM 28.4 °F 18.0 °F 21.2 °F 74% 29.83 in 10.0 mi West 12.7 mph - N/A   Overcast
9:35 PM 30.2 °F 19.8 °F 19.4 °F 64% 29.83 in 10.0 mi West 13.8 mph - N/A   Overcast
9:55 PM 28.4 °F 18.0 °F 19.4 °F 69% 29.83 in 10.0 mi West 12.7 mph - N/A   Overcast
10:15 PM 28.4 °F 18.5 °F 21.2 °F 74% 29.84 in 10.0 mi West 11.5 mph - N/A   Overcast
10:35 PM 28.4 °F 17.5 °F 21.2 °F 74% 29.84 in 10.0 mi WNW 13.8 mph - N/A   Overcast
10:55 PM 28.4 °F 16.6 °F 21.2 °F 74% 29.85 in 10.0 mi WNW 16.1 mph - N/A   Overcast
11:15 PM 28.4 °F 18.0 °F 21.2 °F 74% 29.85 in 10.0 mi WNW 12.7 mph - N/A   Overcast
11:35 PM 28.4 °F 17.5 °F 21.2 °F 74% 29.85 in 10.0 mi WNW 13.8 mph - N/A   Overcast
11:55 PM 28.4 °F 18.5 °F 21.2 °F 74% 29.85 in 10.0 mi West 11.5 mph - N/A   Mostly Cloudy